Wind_Speed
63 49 58 59 58 57 53 50 47 43 58 55 45 43 43 55 57 56 56 54 54 56 55 55 55 56 58 61 64 65 62 62 61 58 57 58 57 50
58 53 53 63 58 53 42 48 47 41 45 47 44 46 52 54 54 53 53 54 56 58 59 56 53 53 58 61 61 60 62 63 62 61 61 62 59 56
60 69 60 52 54 51 46 47 42 43 47 47 43 47 51 53 54 55 56 57 59 58 58 59 56 55 57 61 60 62 65 65 65 65 62 61 55 53
62 60 58 63 54 48 46 44 45 43 48 46 49 52 52 55 56 55 58 61 62 61 63 63 63 62 60 60 64 65 65 66 64 62 62 58 58 60
65 62 58 56 54 50 49 47 46 47 48 51 52 54 56 57 58 58 59 63 64 65 66 65 66 62 60 60 64 66 65 65 62 58 58 62 62 63
60 66 59 55 52 46 45 47 47 46 47 49 49 51 54 57 61 63 65 67 67 68 68 67 62 61 60 62 64 66 65 63 61 60 62 65 67 67
53 52 47 43 41 41 43 43 44 47 50 52 55 58 62 64 66 68 70 70 70 66 63 60 63 62 62 63 61 59 60 62 62 63 64 64 64 63
45 39 38 37 40 43 46 49 51 54 56 58 63 67 70 71 72 69 66 64 63 66 61 64 61 62 63 62 61 62 62 64 65 65 65 64 64 65
36 36 39 43 45 47 49 52 54 57 62 65 69 71 71 68 61 62 64 65 61 60 59 58 60 60 61 64 64 64 65 65 67 68 67 67 67 68
36 39 42 46 49 52 55 60 63 66 68 70 72 71 67 59 60 65 62 60 55 55 57 56 59 60 61 62 64 65 67 69 70 71 71 71 72 74
42 45 48 50 54 58 61 67 69 72 68 65 55 55 58 60 60 57 52 50 53 56 60 61 63 62 61 64 66 68 70 72 73 75 77 77 80 82
45 49 53 55 58 62 67 68 69 63 54 53 53 54 54 54 51 49 52 53 56 61 59 61 62 65 65 65 67 70 73 75 78 81 83 84 85 82
55 60 63 62 65 66 62 57 52 53 53 57 56 51 48 47 48 53 56 61 58 59 62 64 65 68 69 69 69 73 76 79 81 83 82 80 77 72
64 65 65 62 60 57 55 46 48 51 52 48 43 43 45 49 53 55 56 57 59 61 65 67 69 70 72 73 75 76 79 81 82 78 73 68 63 61
60 62 56 53 50 45 43 42 44 42 39 39 42 46 50 50 51 54 57 59 61 64 67 69 71 74 77 78 80 79 76 73 68 64 60 58 57 58
50 49 45 41 39 40 40 36 36 37 40 45 45 46 48 50 53 56 58 60 62 66 69 73 76 78 79 79 77 73 68 64 60 60 60 59 60 63
39 41 44 39 34 34 33 34 37 41 43 43 44 46 49 52 53 55 59 62 66 68 70 73 75 76 76 73 68 65 62 63 64 63 63 63 63 67
38 32 29 28 28 29 33 37 39 39 41 43 45 46 48 51 55 59 62 65 68 71 74 76 75 73 70 64 65 64 64 66 65 65 67 68 67 68
19 22 24 27 30 32 35 36 37 39 41 43 45 47 50 53 56 61 65 68 71 73 75 74 71 69 65 61 60 64 67 70 68 67 69 69 65 58
23 26 28 28 28 31 33 36 37 38 40 44 46 49 52 56 60 64 67 69 72 75 73 68 66 65 65 63 60 61 68 70 69 66 64 59 56 54
22 22 23 27 30 32 34 34 36 39 42 43 46 50 54 57 60 64 68 73 76 72 68 64 65 66 67 67 65 64 65 68 68 63 57 54 52 42
22 25 27 29 30 31 33 36 37 38 40 43 46 50 52 56 62 66 72 77 73 68 66 66 68 70 71 71 68 65 61 59 60 57 55 54 46 31
24 25 26 26 29 31 34 35 36 38 42 47 49 53 58 62 65 71 76 75 70 70 72 72 72 71 70 68 65 60 55 52 49 46 47 49 42 31
Wind_Direction
255 258 265 266 271 268 271 285 283 281 280 270 270 269 264 266 268 270 276 281 281 283 283 283 283 282 280 282 285 287 286 283 281 281 282 282 281 276
268 260 267 263 263 273 268 269 267 266 264 267 272 262 261 269 271 273 277 280 279 279 282 283 285 287 286 285 286 287 286 284 282 280 280 280 277 276
264 266 261 259 276 261 258 266 261 260 263 265 264 266 268 271 275 276 279 281 283 282 287 287 286 286 287 285 287 287 285 284 282 279 281 278 274 270
259 258 262 264 266 256 257 259 260 258 259 264 267 270 274 274 278 281 281 284 287 285 287 288 286 287 289 285 285 285 284 280 280 278 276 273 273 271
262 261 264 261 260 258 257 258 261 262 264 270 269 272 276 279 280 282 281 282 283 284 288 288 288 285 285 283 282 281 280 277 276 277 275 274 271 270
255 256 258 261 265 266 263 265 269 273 274 277 279 279 280 279 279 281 282 284 287 288 289 291 289 287 284 282 280 279 279 278 275 273 274 275 274 277
247 248 252 257 263 267 271 275 276 275 275 277 279 279 279 280 281 282 285 288 288 291 291 288 286 281 280 280 279 277 277 276 276 277 278 279 279 278
245 251 259 265 268 271 272 273 274 275 276 278 279 279 280 283 285 288 289 288 289 291 288 282 283 282 283 281 276 277 280 281 282 283 282 282 280 278
266 269 270 271 270 272 274 275 277 278 277 277 278 279 281 285 288 289 289 288 285 282 283 280 282 281 280 278 283 286 287 286 286 284 284 284 283 282
271 269 268 270 272 272 272 272 273 273 275 279 282 284 289 288 285 287 288 283 280 279 279 279 279 279 283 286 286 286 287 286 285 285 285 285 284 283
271 270 270 271 272 272 272 272 275 279 283 289 289 286 285 285 285 282 280 276 277 280 280 280 282 285 286 286 288 288 288 288 288 289 289 288 286 286
266 269 270 270 268 269 271 276 282 289 284 281 287 286 287 286 282 275 275 278 279 283 285 286 286 287 288 288 289 290 290 291 291 291 290 288 286 285
256 258 261 265 268 273 282 287 285 281 278 283 285 284 283 280 277 275 279 282 286 287 288 289 289 289 290 290 289 289 290 290 290 289 287 286 283 281
261 267 271 278 283 286 286 280 279 279 280 276 277 278 279 278 280 284 288 288 289 289 290 291 292 292 292 290 290 292 291 289 287 285 284 282 281 280
273 277 282 281 279 276 275 278 276 273 271 275 277 279 283 288 289 289 289 291 293 293 294 293 293 293 294 295 294 293 290 288 287 285 284 283 282 280
276 275 274 272 271 273 272 268 267 269 273 277 285 288 288 288 289 291 294 294 295 296 298 298 298 298 298 297 296 293 292 290 287 286 286 285 284 282
263 269 271 266 266 261 261 267 273 276 281 286 288 289 290 291 294 295 296 298 299 300 300 300 300 300 298 296 294 293 292 291 290 289 288 287 285 283
262 257 256 255 259 266 272 276 280 285 287 287 289 291 294 296 298 300 299 300 300 300 301 302 301 298 296 296 296 294 294 292 292 293 293 291 288 285
246 249 256 266 275 280 281 281 282 284 288 291 294 296 298 301 299 300 302 303 303 303 304 304 300 297 297 296 295 296 296 295 295 296 295 293 292 287
258 264 268 271 274 277 281 284 287 292 294 295 298 300 301 303 305 305 305 306 306 306 306 303 300 299 298 297 297 295 295 295 295 296 294 294 293 291
264 269 273 277 280 282 285 289 293 295 298 300 303 306 309 309 308 309 309 309 311 309 306 303 301 299 298 298 297 296 295 295 296 295 294 293 292 290
269 272 274 276 282 288 292 294 296 302 306 308 311 311 311 312 313 311 312 313 312 309 306 303 301 299 299 297 296 295 294 293 293 295 297 296 293 283
270 274 281 287 291 293 295 300 304 306 309 313 313 315 317 315 313 313 314 314 311 309 306 305 303 301 299 297 296 294 293 290 289 291 294 293 292 288
Height
5659 5659 5662 5662 5662 5663 5662 5661 5659 5659 5661 5661 5658 5657 5657 5654 5654 5652 5650 5650 5650 5648 5645 5643 5641 5640 5639 5637 5635 5634 5632 5631 5631 5631 5630 5629 5628 5629
5645 5646 5648 5647 5647 5647 5647 5646 5646 5644 5646 5647 5645 5642 5642 5641 5640 5639 5636 5636 5634 5632 5632 5630 5628 5626 5624 5622 5619 5617 5615 5614 5614 5615 5615 5613 5614 5614
5631 5632 5630 5631 5632 5633 5634 5635 5633 5632 5634 5633 5631 5631 5630 5629 5627 5625 5622 5621 5620 5619 5618 5616 5613 5610 5607 5605 5602 5600 5599 5599 5599 5599 5599 5598 5599 5599
5617 5616 5615 5617 5618 5619 5620 5620 5619 5618 5619 5618 5618 5618 5617 5616 5615 5613 5610 5607 5605 5603 5601 5598 5596 5593 5590 5588 5585 5583 5582 5582 5582 5581 5582 5582 5583 5582
5601 5602 5602 5604 5605 5606 5607 5606 5606 5606 5605 5605 5606 5605 5604 5603 5601 5598 5594 5590 5587 5585 5583 5579 5577 5576 5573 5571 5567 5567 5565 5564 5566 5566 5566 5565 5564 5564
5587 5587 5588 5589 5591 5592 5592 5593 5593 5593 5593 5592 5591 5591 5590 5588 5584 5581 5578 5573 5570 5567 5565 5563 5559 5558 5555 5553 5550 5548 5548 5547 5547 5547 5547 5547 5545 5545
5572 5573 5575 5576 5579 5579 5580 5581 5580 5580 5579 5577 5576 5576 5574 5571 5567 5564 5560 5556 5553 5550 5546 5543 5541 5539 5538 5534 5532 5531 5530 5529 5528 5527 5527 5526 5525 5525
5559 5560 5562 5563 5565 5567 5568 5568 5568 5566 5565 5562 5560 5558 5556 5552 5549 5546 5543 5539 5534 5532 5530 5522 5523 5520 5521 5516 5514 5513 5511 5510 5507 5507 5506 5504 5503 5503
5550 5551 5552 5554 5555 5555 5555 5554 5553 5551 5548 5546 5543 5540 5537 5534 5532 5529 5526 5523 5518 5513 5514 5508 5506 5505 5503 5499 5495 5493 5491 5488 5485 5485 5484 5481 5480 5478
5538 5540 5540 5541 5541 5540 5539 5538 5536 5534 5530 5528 5525 5523 5521 5517 5515 5512 5508 5505 5501 5496 5497 5498 5490 5489 5487 5482 5478 5474 5471 5467 5463 5461 5459 5457 5455 5453
5524 5525 5525 5525 5525 5524 5524 5522 5519 5517 5514 5512 5509 5505 5503 5500 5497 5492 5491 5489 5487 5484 5482 5480 5477 5475 5470 5467 5460 5454 5449 5444 5438 5434 5432 5429 5427 5425
5508 5509 5509 5509 5508 5507 5506 5503 5502 5501 5497 5496 5493 5490 5487 5484 5482 5480 5479 5476 5473 5470 5463 5463 5457 5454 5455 5450 5442 5434 5427 5421 5414 5408 5403 5401 5397 5394
5491 5491 5490 5491 5491 5490 5488 5487 5486 5485 5482 5480 5477 5476 5472 5470 5469 5469 5466 5463 5457 5452 5447 5443 5440 5433 5429 5427 5424 5415 5408 5400 5393 5387 5379 5373 5369 5365
5473 5474 5475 5476 5476 5476 5475 5473 5471 5469 5468 5466 5464 5463 5460 5459 5457 5454 5450 5447 5440 5436 5429 5423 5418 5412 5408 5404 5398 5393 5384 5375 5369 5362 5356 5351 5347 5342
5460 5461 5462 5463 5462 5461 5459 5458 5458 5457 5457 5455 5454 5452 5450 5446 5442 5440 5435 5429 5422 5415 5409 5402 5397 5391 5383 5378 5373 5366 5359 5352 5343 5338 5333 5330 5327 5324
5449 5449 5451 5450 5449 5449 5448 5447 5447 5448 5446 5446 5443 5440 5436 5433 5429 5424 5417 5411 5406 5397 5389 5381 5372 5366 5361 5353 5346 5340 5330 5326 5323 5317 5313 5311 5307 5300
5437 5438 5439 5439 5438 5440 5439 5439 5439 5438 5437 5435 5431 5428 5424 5419 5413 5406 5400 5394 5387 5380 5372 5361 5352 5344 5337 5330 5324 5315 5310 5303 5298 5296 5291 5288 5284 5276
5426 5427 5429 5431 5433 5431 5430 5431 5430 5427 5425 5423 5420 5415 5410 5403 5397 5390 5384 5378 5371 5362 5353 5341 5331 5323 5316 5310 5298 5294 5287 5280 5276 5273 5265 5260 5258 5251
5420 5423 5424 5424 5423 5423 5422 5421 5420 5418 5415 5411 5406 5401 5395 5389 5384 5377 5369 5361 5351 5341 5331 5319 5308 5298 5295 5291 5287 5272 5264 5255 5253 5250 5240 5233 5230 5227
5414 5415 5416 5416 5416 5416 5414 5413 5410 5406 5402 5399 5394 5388 5383 5376 5368 5360 5350 5341 5331 5320 5309 5297 5286 5278 5271 5268 5266 5261 5243 5234 5229 5227 5219 5212 5206 5202
5408 5409 5409 5409 5408 5407 5405 5402 5399 5395 5391 5387 5381 5375 5367 5360 5351 5342 5332 5320 5308 5297 5288 5278 5268 5259 5252 5245 5243 5237 5228 5214 5203 5202 5199 5194 5189 5186
5402 5402 5401 5401 5399 5397 5394 5392 5388 5384 5379 5374 5367 5360 5352 5344 5335 5324 5312 5300 5288 5277 5268 5259 5249 5240 5231 5222 5218 5213 5208 5199 5188 5182 5176 5170 5169 5170
5395 5394 5393 5391 5389 5387 5385 5381 5377 5372 5366 5360 5353 5345 5336 5327 5316 5305 5293 5280 5268 5258 5247 5239 5228 5217 5208 5199 5193 5190 5185 5179 5176 5173 5164 5153 5152 5152